FW0403 Weather Reports


time (UTC)temp
C
wind
direction
speed
KPH
gust
KPH
rain 1hr
cm
rain 24hr
cm
rain mn
cm
humidity
%
barometer
mb
20260510081229 25 136 17.7 25.7 0.00 0.00 0.00 87 1010.0
20260510080056 25 221 19.3 27.4 0.00 0.00 0.00 87 1009.9
20260510074933 25 2 19.3 29.0 0.00 0.00 0.00 87 1009.7
20260510074429 25 179 20.9 29.0 0.00 0.00 0.00 87 1009.8
20260510073304 25 185 19.3 27.4 0.00 0.00 0.00 86 1009.8
20260510071520 25 180 14.5 22.5 0.00 0.00 0.00 86 1010.0
20260510070401 25 176 17.7 24.1 0.00 0.00 0.00 86 1010.1
20260510065849 25 185 17.7 24.1 0.00 0.00 0.00 86 1010.0
20260510065344 25 158 16.1 24.1 0.00 0.00 0.00 86 1010.1
20260510064824 25 2 16.1 24.1 0.00 0.00 0.00 86 1010.3
20260510064320 25 184 14.5 24.1 0.00 0.00 0.00 86 1010.2
20260510063817 25 189 14.5 24.1 0.00 0.00 0.00 86 1010.3
20260510063320 25 2 16.1 25.7 0.00 0.00 0.00 86 1010.3
20260510062816 25 146 14.5 25.7 0.00 0.00 0.00 86 1010.4
20260510062323 25 168 16.1 25.7 0.00 0.00 0.00 86 1010.5
20260510061156 25 165 16.1 27.4 0.00 0.00 0.00 86 1010.4
20260510060638 25 175 16.1 27.4 0.00 0.00 0.00 86 1010.4
20260510060118 25 161 16.1 27.4 0.00 0.00 0.00 86 1010.4
20260510055621 25 165 16.1 27.4 0.00 0.00 0.00 86 1010.5
20260510055112 25 182 16.1 24.1 0.00 0.00 0.00 86 1010.4
20260510053259 25 155 11.3 22.5 0.00 0.00 0.00 86 1010.6
20260510052118 25 237 4.8 16.1 0.00 0.00 0.00 86 1010.7
20260510051559 25 125 6.4 14.5 0.00 0.00 0.00 86 1010.7
20260510051036 25 273 9.7 24.1 0.00 0.00 0.00 86 1010.8
20260510050532 26 218 12.9 24.1 0.00 0.00 0.00 86 1010.7
20260510050021 26 129 14.5 32.2 0.00 0.00 0.00 86 1010.8
20260510045502 25 63 17.7 33.8 0.00 0.00 0.00 86 1011.0
20260510043659 26 96 24.1 33.8 0.00 0.00 0.00 86 1011.1
20260510043139 26 93 24.1 29.0 0.00 0.00 0.00 86 1011.0
20260510042617 26 80 22.5 29.0 0.00 0.00 0.00 86 1011.1
20260510042108 26 100 20.9 25.7 0.00 0.00 0.00 86 1011.1
20260510041546 26 89 19.3 25.7 0.00 0.00 0.00 86 1011.2
20260510040430 26 105 14.5 24.1 0.00 0.00 0.00 86 1011.4
20260510035918 26 115 16.1 24.1 0.00 0.00 0.00 85 1011.1
20260510035418 26 71 17.7 24.1 0.00 0.00 0.00 85 1011.2
20260510034918 26 78 17.7 22.5 0.00 0.00 0.00 85 1011.3
20260510034412 26 100 17.7 22.5 0.00 0.00 0.00 85 1011.4
20260510033905 26 107 16.1 20.9 0.00 0.00 0.00 85 1011.2
20260510033357 26 100 16.1 22.5 0.00 0.00 0.00 85 1011.0
20260510032843 26 95 17.7 22.5 0.00 0.00 0.00 85 1011.0
20260510032348 26 86 17.7 22.5 0.00 0.00 0.00 85 1010.9
20260510031847 26 101 14.5 22.5 0.00 0.00 0.00 85 1011.0
20260510031352 26 69 16.1 22.5 0.00 0.00 0.00 85 1011.1
20260510030855 26 100 16.1 22.5 0.00 0.00 0.00 84 1011.1
20260510030339 26 80 14.5 20.9 0.00 0.00 0.00 84 1011.0
20260510025836 26 86 12.9 22.5 0.00 0.00 0.00 84 1010.9
20260510024646 26 84 14.5 22.5 0.00 0.00 0.00 83 1010.5
20260510024125 26 85 11.3 19.3 0.00 0.00 0.00 83 1010.5
20260510023611 26 108 11.3 17.7 0.00 0.00 0.00 84 1010.3
20260510023114 26 117 12.9 19.3 0.00 0.00 0.00 84 1010.3
20260510022556 26 92 14.5 19.3 0.00 0.00 0.00 84 1010.2
20260510022035 26 103 14.5 19.3 0.00 0.00 0.00 84 1010.1
20260510021525 26 96 14.5 19.3 0.00 0.00 0.00 84 1010.0
20260510020417 26 73 8.0 14.5 0.00 0.00 0.00 84 1009.8
20260510015858 26 100 8.0 14.5 0.00 0.00 0.00 84 1009.8
20260510015355 26 89 4.8 14.5 0.00 0.00 0.00 84 1009.8
20260510014851 26 73 4.8 12.9 0.00 0.00 0.00 84 1009.5
20260510014335 26 184 8.0 12.9 0.00 0.00 0.00 84 1009.3
20260510013831 26 183 8.0 12.9 0.00 0.00 0.00 84 1009.0
20260510013328 26 132 8.0 12.9 0.00 0.00 0.00 84 1008.6
20260510012222 26 197 6.4 12.9 0.00 0.00 0.00 84 1008.3
20260510011714 26 164 6.4 17.7 0.00 0.00 0.00 84 1008.3
20260510011159 26 175 6.4 17.7 0.00 0.00 0.00 84 1008.4
20260510010705 26 171 9.7 17.7 0.00 0.00 0.00 83 1008.4
20260510010149 27 157 12.9 17.7 0.00 0.00 0.00 83 1008.3
20260510005633 27 166 11.3 16.1 0.00 0.00 0.00 83 1008.2
20260510005111 27 180 11.3 16.1 0.00 0.00 0.00 83 1008.2
20260510004611 27 160 11.3 16.1 0.00 0.00 0.00 82 1008.2
20260510004057 27 170 9.7 17.7 0.00 0.00 0.00 82 1008.3
20260510003553 27 140 9.7 17.7 0.00 0.00 0.00 82 1008.3
20260510003050 27 153 9.7 17.7 0.00 0.00 0.00 82 1008.2
20260510002544 27 157 9.7 17.7 0.00 0.00 0.00 82 1008.2
20260510002033 27 163 11.3 17.7 0.00 0.00 0.00 81 1008.2
20260510000846 27 171 11.3 19.3 0.00 0.00 0.00 81 1007.9
20260510000349 28 152 12.9 19.3 0.00 0.00 0.00 81 1007.9
20260509235856 28 157 12.9 19.3 0.00 0.00 0.00 81 1007.9
20260509235341 28 161 12.9 19.3 0.00 0.00 0.00 80 1008.1
20260509234838 28 125 11.3 19.3 0.00 0.00 0.00 80 1008.0
20260509234338 28 2 11.3 19.3 0.00 0.00 0.00 80 1008.0
20260509233833 28 2 12.9 20.9 0.00 0.00 0.00 79 1007.9
20260509232723 28 151 12.9 20.9 0.00 0.00 0.00 78 1008.1
20260509232211 29 117 11.3 20.9 0.00 0.00 0.00 77 1008.0
20260509231718 29 172 6.4 14.5 0.00 0.00 0.00 77 1008.0
20260509231208 29 231 4.8 12.9 0.00 0.00 0.00 77 1008.0
20260509230700 29 138 4.8 12.9 0.00 0.00 0.00 76 1008.0
20260509230145 30 101 6.4 12.9 0.00 0.00 0.00 75 1008.0
20260509223657 30 92 1.6 8.0 0.00 0.00 0.00 75 1007.6
20260509221910 30 136 6.4 12.9 0.00 0.00 0.00 74 1007.6
20260509220729 30 155 6.4 12.9 0.00 0.03 0.00 74 1007.4
20260509215540 30 157 3.2 8.0 0.00 0.03 0.00 75 1007.4
20260509215033 30 185 1.6 6.4 0.00 0.03 0.00 75 1007.4
20260509214534 30 193 0.0 4.8 0.00 0.03 0.00 76 1007.4
20260509214025 30 149 1.6 12.9 0.00 0.03 0.00 76 1007.5
20260509213512 30 107 4.8 12.9 0.00 0.03 0.00 77 1007.4
20260509212408 30 108 6.4 11.3 0.00 0.05 0.00 76 1007.4
20260509211904 30 106 4.8 8.0 0.00 0.05 0.00 77 1007.6
20260509211347 30 92 4.8 8.0 0.00 0.05 0.00 77 1007.7
20260509210832 30 96 6.4 8.0 0.00 0.05 0.00 77 1007.7
20260509210330 29 103 4.8 9.7 0.00 0.05 0.00 77 1007.7
20260509205827 29 105 3.2 9.7 0.00 0.05 0.00 78 1007.6
20260509205320 29 97 4.8 12.9 0.00 0.05 0.00 78 1007.5
20260509204814 29 111 8.0 12.9 0.00 0.05 0.00 77 1007.5
20260509204257 29 99 8.0 12.9 0.00 0.05 0.00 76 1007.6
20260509203750 30 125 8.0 12.9 0.00 0.05 0.00 76 1007.7
20260509203243 30 100 8.0 9.7 0.00 0.05 0.00 75 1007.6
20260509202746 30 100 6.4 9.7 0.00 0.05 0.00 74 1007.7
20260509202230 30 82 6.4 9.7 0.00 0.05 0.00 73 1007.6
20260509201729 30 115 3.2 9.7 0.00 0.05 0.00 73 1007.7
20260509201217 30 89 1.6 6.4 0.00 0.05 0.00 74 1007.7
20260509200708 30 200 1.6 6.4 0.00 0.05 0.00 75 1007.8
20260509200156 30 175 3.2 6.4 0.00 0.05 0.00 74 1007.8
20260509195636 30 169 1.6 6.4 0.00 0.05 0.00 74 1008.0
20260509195124 30 183 0.0 3.2 0.00 0.05 0.00 75 1008.1
20260509194624 30 111 0.0 1.6 0.00 0.05 0.00 76 1008.1
20260509194101 30 132 0.0 3.2 0.00 0.05 0.00 76 1008.3
20260509193554 30 188 0.0 3.2 0.00 0.05 0.00 75 1008.2
20260509192421 29 100 0.0 8.0 0.00 0.05 0.00 74 1008.2
20260509191917 28 83 1.6 8.0 0.00 0.05 0.00 74 1008.5
20260509191419 28 353 3.2 8.0 0.00 0.05 0.00 73 1008.5
20260509190246 29 18 3.2 14.5 0.00 0.05 0.00 74 1008.3
20260509185744 28 300 4.8 14.5 0.00 0.05 0.00 73 1008.3
20260509185230 29 7 4.8 14.5 0.00 0.05 0.00 73 1008.4
20260509184722 29 299 4.8 14.5 0.00 0.05 0.00 74 1008.3
20260509184225 28 347 3.2 9.7 0.00 0.05 0.00 74 1008.4
20260509183732 28 343 0.0 9.7 0.00 0.05 0.00 74 1008.6
20260509183226 28 2 1.6 0.0 0.00 0.05 0.00 76 1008.6
20260509182716 27 47 3.2 6.4 0.00 0.05 0.00 78 1008.5
20260509182223 27 340 1.6 6.4 0.00 0.05 0.00 81 1008.5
20260509181707 27 357 1.6 6.4 0.00 0.05 0.00 83 1008.6
20260509181151 27 310 1.6 6.4 0.00 0.05 0.00 84 1008.7
20260509180648 27 37 3.2 4.8 0.00 0.05 0.00 84 1008.8
20260509180142 27 47 3.2 9.7 0.00 0.05 0.00 85 1008.8
20260509175623 27 98 4.8 9.7 0.00 0.05 0.00 85 1008.9
20260509175103 27 88 6.4 9.7 0.00 0.05 0.00 86 1009.1
20260509174600 27 102 3.2 9.7 0.00 0.05 0.00 87 1009.1
20260509174050 27 99 0.0 4.8 0.00 0.05 0.00 87 1009.3
20260509173547 27 173 1.6 4.8 0.00 0.05 0.00 87 1009.4
20260509173036 27 115 1.6 4.8 0.00 0.05 0.00 88 1009.6
20260509172541 27 107 1.6 4.8 0.00 0.05 0.00 88 1009.5
20260509172028 27 182 1.6 4.8 0.00 0.05 0.00 88 1009.6
20260509171523 27 176 1.6 4.8 0.00 0.05 0.00 88 1009.6
20260509171007 27 192 0.0 4.8 0.00 0.05 0.00 88 1009.4
20260509170500 26 175 0.0 1.6 0.00 0.05 0.00 88 1009.4
20260509165957 26 260 0.0 0.0 0.00 0.05 0.00 88 1009.5
20260509165448 26 184 0.0 3.2 0.00 0.05 0.00 89 1009.5
20260509164927 26 165 0.0 0.0 0.00 0.05 0.00 89 1009.4
20260509164425 26 267 0.0 6.4 0.00 0.05 0.00 89 1009.8
20260509163909 26 195 0.0 3.2 0.00 0.05 0.00 89 1009.9
20260509163347 26 237 0.0 3.2 0.00 0.05 0.00 89 1009.9
20260509162854 26 184 0.0 0.0 0.00 0.05 0.00 89 1009.5
20260509162345 26 184 1.6 1.6 0.00 0.05 0.00 89 1009.6
20260509161845 26 182 1.6 6.4 0.00 0.05 0.00 89 1009.7
20260509161337 26 208 1.6 4.8 0.00 0.05 0.00 89 1009.8
20260509160843 26 210 1.6 4.8 0.00 0.05 0.00 89 1009.8
20260509160321 26 195 0.0 4.8 0.00 0.05 0.00 89 1009.7
20260509155803 26 175 0.0 0.0 0.00 0.05 0.00 89 1009.6
20260509155247 26 175 1.6 6.4 0.00 0.05 0.00 89 1009.6
20260509154739 26 175 1.6 6.4 0.00 0.05 0.00 89 1009.8
20260509154217 26 211 0.0 6.4 0.00 0.05 0.00 89 1009.8
20260509153656 26 108 0.0 0.0 0.00 0.05 0.00 89 1009.5
20260509153150 26 108 0.0 1.6 0.00 0.05 0.00 89 1009.6
20260509152653 26 193 0.0 0.0 0.00 0.05 0.00 89 1009.6
20260509151534 26 119 0.0 3.2 0.00 0.05 0.00 89 1009.4
20260509150411 26 240 0.0 3.2 0.00 0.05 0.00 89 1009.8
20260509145854 26 169 0.0 1.6 0.00 0.05 0.00 89 1009.5
20260509145402 26 219 0.0 0.0 0.00 0.05 0.00 89 1009.6
20260509144843 26 219 0.0 0.0 0.00 0.05 0.00 89 1009.9
20260509143729 25 223 0.0 3.2 0.00 0.05 0.00 89 1009.9
20260509143226 25 210 1.6 4.8 0.00 0.05 0.00 89 1010.0
20260509142715 25 175 3.2 4.8 0.00 0.05 0.00 89 1009.8
20260509142217 25 185 1.6 4.8 0.00 0.05 0.00 89 1009.9
20260509141657 26 191 0.0 4.8 0.00 0.05 0.00 89 1009.5
20260509141204 26 144 0.0 0.0 0.00 0.05 0.00 89 1009.5
20260509140646 26 144 0.0 0.0 0.00 0.05 0.00 89 1009.4
20260509140140 26 171 1.6 6.4 0.00 0.05 0.00 89 1009.3
20260509135636 26 177 3.2 8.0 0.00 0.05 0.00 89 1009.4
20260509135129 26 130 3.2 8.0 0.00 0.05 0.00 89 1009.5
20260509134636 26 187 4.8 8.0 0.00 0.05 0.00 89 1009.6
20260509134123 26 185 3.2 8.0 0.00 0.05 0.00 89 1009.4
20260509132955 26 234 0.0 1.6 0.00 0.05 0.00 89 1009.6
20260509132436 26 15 0.0 0.0 0.00 0.05 0.00 89 1009.5
20260509131310 26 15 0.0 1.6 0.00 0.05 0.00 89 1009.6
20260509130816 26 15 0.0 1.6 0.00 0.05 0.00 89 1009.7
20260509125632 25 15 0.0 0.0 0.00 0.05 0.00 89 1009.0
20260509125137 25 15 0.0 0.0 0.00 0.05 0.00 89 1009.2
20260509124846 25 15 0.0 0.0 0.00 0.05 0.00 89 1009.1
20260509124339 25 15 0.0 0.0 0.00 0.05 0.00 89 1009.2
20260509123819 25 15 0.0 0.0 0.00 0.05 0.00 89 1009.5
20260509123304 25 15 0.0 0.0 0.00 0.05 0.00 89 1009.5
20260509122800 25 15 0.0 4.8 0.00 0.05 0.00 89 1009.5
20260509122248 25 15 1.6 8.0 0.00 0.05 0.00 89 1009.5
20260509121736 25 28 1.6 8.0 0.00 0.05 0.00 89 1009.6
20260509121227 25 2 3.2 8.0 0.00 0.05 0.00 89 1009.7
20260509120710 25 41 3.2 8.0 0.00 0.05 0.00 89 1009.8
20260509120209 25 20 0.0 4.8 0.00 0.05 0.00 89 1009.8
20260509115715 25 340 0.0 3.2 0.00 0.05 0.00 89 1009.7
20260509115156 25 341 0.0 3.2 0.00 0.05 0.00 89 1009.4
20260509114644 25 341 0.0 1.6 0.00 0.05 0.00 89 1009.1
20260509114126 25 340 0.0 0.0 0.00 0.05 0.00 89 1008.8
20260509113614 25 340 0.0 0.0 0.00 0.05 0.00 89 1009.2
20260509113053 25 340 0.0 0.0 0.00 0.05 0.00 88 1009.1
20260509112553 25 115 0.0 1.6 0.00 0.05 0.00 88 1008.7
20260509112033 25 115 0.0 0.0 0.00 0.05 0.00 88 1008.9
20260509111522 25 115 0.0 0.0 0.00 0.05 0.00 88 1009.0
20260509111010 25 115 0.0 0.0 0.00 0.05 0.00 88 1008.9
20260509110516 25 115 0.0 0.0 0.00 0.05 0.00 88 1008.8
20260509110006 25 115 0.0 1.6 0.00 0.05 0.00 88 1008.7
20260509105452 25 115 0.0 0.0 0.00 0.05 0.00 88 1008.7
20260509104940 25 115 0.0 0.0 0.00 0.05 0.00 88 1008.6
20260509104428 25 115 0.0 3.2 0.00 0.05 0.00 88 1008.6
20260509103905 25 115 0.0 3.2 0.00 0.05 0.00 88 1008.5
20260509102801 25 115 1.6 3.2 0.00 0.05 0.00 89 1008.6
20260509102250 25 114 0.0 3.2 0.00 0.05 0.00 88 1008.6
20260509101756 25 107 0.0 3.2 0.00 0.05 0.00 88 1008.5
20260509100642 25 107 1.6 4.8 0.00 0.05 0.00 88 1008.4
20260509100149 25 100 1.6 4.8 0.00 0.05 0.00 88 1008.2
20260509095655 25 100 0.0 4.8 0.00 0.05 0.00 88 1008.2
20260509095202 25 109 1.6 6.4 0.00 0.05 0.00 88 1008.2
20260509094708 25 158 3.2 6.4 0.00 0.05 0.00 88 1008.2
20260509094155 25 176 3.2 9.7 0.00 0.05 0.00 88 1008.2
20260509093638 25 169 4.8 9.7 0.00 0.05 0.00 88 1008.3
20260509093141 25 184 4.8 9.7 0.00 0.05 0.00 88 1008.2
20260509092634 25 143 6.4 9.7 0.00 0.05 0.00 88 1008.0
20260509092140 25 170 6.4 9.7 0.00 0.05 0.00 88 1007.9
20260509091004 25 136 4.8 9.7 0.00 0.05 0.00 88 1007.7
20260509090510 25 201 4.8 8.0 0.00 0.05 0.00 88 1007.9
20260509090007 25 171 4.8 8.0 0.00 0.05 0.00 88 1007.9
20260509085511 25 171 4.8 8.0 0.00 0.05 0.00 88 1007.8
20260509084325 25 166 3.2 6.4 0.00 0.05 0.00 88 1008.3
20260509083819 25 176 3.2 4.8 0.00 0.05 0.00 88 1008.4
20260509083310 25 167 1.6 4.8 0.00 0.05 0.00 88 1008.4
20260509082804 25 163 1.6 4.8 0.00 0.05 0.00 88 1008.4
20260509082244 25 159 0.0 4.8 0.00 0.05 0.00 88 1008.4